"Pseudo-MPEC" for P10OD6s

Created 2019 Jun 15 19:08:04 UT using Find_Orb

Click here for an explanation of pseudo-MPECs

 
 Astrometry: 
     P10OD6s  C2019 05 07P[lOuke0CPxax=wr+1f@d,Suu6*RTpK*+q3cR7`\iGZ-E,lVL3u2F51
     P10OD6s  C2019 05 07@p-19?Jd#V66\yBM_$=-8$,EpK]7^XaEia_.2#1h9!$8w,R!#9m'F51
     P10OD6s  C2019 06 02ElQ;i-Gn!6V`xBdcd#Bp;NHp+acf,0!N-.*TW+Dglv/09M3Wo)LxF51
     P10OD6s  C2019 06 02Qv)8_pxIhwOb[]?g[,3WoCpB0'l:-jE)M8BC6leji:-KwlXgYi\9F51
     P10OD6s  C2019 06 02Y2@K';0hSf.yQSBF`GC@9V-ryjN9I;3tA;iG%1?XwNW)'TOA!La;F51
     P10OD6s  C2019 06 02\og\9uWbjR#YT)Ds;BGM%('.#(Zewq4eS'[(wljgDHx+DrF@sMETF51
     P10OD6s KC2019 06 05S%]hD492yFmZ(jLLWAstrometryKtWI%VuvoSvK.)*EKOYd;30/G691
     P10OD6s KC2019 06 058yNe1y9hsxxyuGRKL:TV__sredacted;j!,Ud-Gc[fN4=7yoixDj691
     P10OD6s KC2019 06 05*oEJr^P21t3=)Q%Qn`=COC:@v//tTSYIo$MAWSNR@E[KJf@e*c:M691
     P10OD6s KC2019 06 06#4$fwx@P1Dy5q@RONZ[H%ptP]:ogW/n4Cr@KuJ\sILDCXMq8.tq%711
     P10OD6s KC2019 06 06nG.)?%QS$-vO(eUIkm#M;\l3;`4WH+:gdEtAI(=xd@A/@hgma()S711
     P10OD6s KC2019 06 06oxclick:^/CI^-oXNr`FKKik9Re(?XCvK:jcJa,MEnv#vodv@i:c711
     P10OD6s  C2019 06 07Z.oyj5W3kMcpBTZl;@s`4Jce?'a9pVV*dhereK)T:;g+hPd^6VSVF52
     P10OD6s  C2019 06 07*9ETW0M8q@c'vmkGQEbFfGhq#SU9c/Jmo!3Y(PHi2D6#FA#bgi/VF52
     P10OD6s  C2019 06 07:3/JLrYv@5Eu#$$]/LA%DK^!3KEB[_UD/\qforB2k2Xfi\jLkKR2F52
     P10OD6s  C2019 06 07Pn1!,242W0mq@lcIhT5explanationF@$)ePt6\afPrA7^/IpspgF52
     P10OD6s  C2019 06 109bmoKp^Y+*Tcg?m/O#OOJqgY@]RjJFSr;XhS8N^lk%e_AN4xWnM'F51
     P10OD6s  C2019 06 10e;`_RlP#8)O.;=a-EyS7%PFFdE#3L*xAD^t7hQOq]fwEtwDMh#FJF51
     P10OD6s  C2019 06 10l\IJoOTHKy`y6NP?y0#ea_^3L$3D(Y'+)PZ^x+7^*M24l1xIw`%6F51

Station data:
(691) Steward Observatory, Kitt Peak - Spacewatch  (N31.962174 W111.600327)
   US/Arizona.  Observer J. V. Scotti. 0.9-m f/3 reflector + CCD.
(711) McDonald Observatory, Fort Davis  (N30.671481 W104.021500)  US/Texas.
   0.76-m f/3.0 reflector.
(F51) Pan-STARRS 1, Haleakala  (N20.707235 W156.255910)  US/Hawaii.
   Observers N. Primak, A. Schultz, S. Watters, J. Thiel, T. Goggia. Measurer
   PS1 Science Consortium. 1.8-m Ritchey-Chrétien + CCD.
(F52) Pan-STARRS 2, Haleakala  (N20.707384 W156.255910)  US/Hawaii. 1.8-m
   Ritchey-Chrétien + CCD.

Orbital elements:  P10OD6s
   Perihelion 2020 Jul 1.820835 +/- 0.214 TT = 19:42:00 (JD 2459032.320835)
Epoch 2019 Jun 10.0 TT = JDT 2458644.5   Earth MOID: 0.7538   AutoNEOCP
M 211.54785994 +/- 0.08             (J2000 ecliptic)
n   0.38278536 +/- 2.44e-5          Peri.  280.12665 +/- 0.055
a   1.87859213 +/- 7.98e-5          Node   130.14596 +/- 0.008
e   0.1398299 +/- 0.00012           Incl.   23.99866 +/- 0.0034
P   2.57/940.46d           H 19.2   G  0.15   U  5.7  
q 1.61590863 +/- 0.000181    Q 2.14127563 +/- 0.000299
From 19 observations 2019 May 7-June 10; mean residual 0".24
Residuals in arcseconds: 
190507 F51  .01-  .10-    190605 691  .05-  .33+    190607 F52  .02+  .51-    
190507 F51  .03+  .10+    190605 691  .37-  .12+    190607 F52  .21+  .20-    
190602 F51  .04+  .14-    190606 711  .16+  .13+    190610 F51  .36+  .30+    
190602 F51  .30-  .15-    190606 711  .08+  .16+    190610 F51  .47-  .23-    
190602 F51  .17-  .13-    190606 711  .56+  .08-    190610 F51  .24-  .01-    
190602 F51  .02+  .15-    190607 F52  .01+  .20-    
190605 691  .06+  .66+    190607 F52  .06+  .09-    

Ephemerides (geocentric):
Date (UTC) HH   RA              Dec         delta   r     elong  mag " sig PA
---- -- -- --  -------------   -----------  ------ ------ -----  --- ---- ---
2019 06 15 19  17 04 08.797   +12 30 32.61  1.2020 2.1066 143.4 22.1 .482 177
2019 06 15 20  17 04 05.701   +12 30 11.42  1.2020 2.1065 143.4 22.1 .485 177
2019 06 15 21  17 04 02.605   +12 29 50.18  1.2020 2.1065 143.4 22.1 .487 177
2019 06 15 22  17 03 59.510   +12 29 28.89  1.2020 2.1065 143.4 22.1 .490 176
2019 06 15 23  17 03 56.417   +12 29 07.56  1.2020 2.1064 143.4 22.1 .493 176
2019 06 16 00  17 03 53.323   +12 28 46.18  1.2021 2.1064 143.4 22.1 .495 176
2019 06 16 01  17 03 50.231   +12 28 24.76  1.2021 2.1064 143.4 22.1 .498 176
2019 06 16 02  17 03 47.140   +12 28 03.29  1.2021 2.1064 143.4 22.1 .501 176
2019 06 16 03  17 03 44.049   +12 27 41.78  1.2021 2.1063 143.4 22.1 .503 176
2019 06 16 04  17 03 40.960   +12 27 20.22  1.2021 2.1063 143.4 22.1 .506 176
2019 06 16 05  17 03 37.871   +12 26 58.61  1.2021 2.1063 143.4 22.1 .509 176
2019 06 16 06  17 03 34.783   +12 26 36.96  1.2021 2.1062 143.3 22.1 .512 176
2019 06 16 07  17 03 31.696   +12 26 15.27  1.2021 2.1062 143.3 22.1 .514 176
2019 06 16 08  17 03 28.610   +12 25 53.52  1.2021 2.1062 143.3 22.1 .517 176
2019 06 16 09  17 03 25.525   +12 25 31.74  1.2022 2.1061 143.3 22.1 .520 176
2019 06 16 10  17 03 22.440   +12 25 09.90  1.2022 2.1061 143.3 22.1 .522 176
2019 06 16 11  17 03 19.357   +12 24 48.02  1.2022 2.1061 143.3 22.1 .525 176
2019 06 16 12  17 03 16.274   +12 24 26.10  1.2022 2.1060 143.3 22.1 .528 176
2019 06 16 13  17 03 13.193   +12 24 04.13  1.2022 2.1060 143.3 22.1 .531 176
2019 06 16 14  17 03 10.112   +12 23 42.11  1.2022 2.1060 143.3 22.1 .533 176
2019 06 16 15  17 03 07.032   +12 23 20.05  1.2022 2.1059 143.3 22.1 .536 176
2019 06 16 16  17 03 03.953   +12 22 57.94  1.2022 2.1059 143.3 22.1 .539 176
2019 06 16 17  17 03 00.876   +12 22 35.79  1.2023 2.1059 143.3 22.1 .542 176
2019 06 16 18  17 02 57.799   +12 22 13.59  1.2023 2.1058 143.2 22.1 .544 176
2019 06 16 19  17 02 54.723   +12 21 51.35  1.2023 2.1058 143.2 22.1 .547 176
2019 06 16 20  17 02 51.648   +12 21 29.06  1.2023 2.1058 143.2 22.1 .550 175
2019 06 16 21  17 02 48.574   +12 21 06.72  1.2023 2.1057 143.2 22.1 .553 175
2019 06 16 22  17 02 45.501   +12 20 44.34  1.2023 2.1057 143.2 22.1 .555 175
2019 06 16 23  17 02 42.428   +12 20 21.92  1.2024 2.1057 143.2 22.1 .558 175
2019 06 17 00  17 02 39.357   +12 19 59.45  1.2024 2.1056 143.2 22.1 .561 175
2019 06 17 01  17 02 36.287   +12 19 36.93  1.2024 2.1056 143.2 22.1 .564 175
2019 06 17 02  17 02 33.218   +12 19 14.37  1.2024 2.1056 143.2 22.1 .566 175
2019 06 17 03  17 02 30.150   +12 18 51.76  1.2024 2.1055 143.2 22.1 .569 175
2019 06 17 04  17 02 27.083   +12 18 29.11  1.2024 2.1055 143.2 22.1 .572 175
2019 06 17 05  17 02 24.017   +12 18 06.42  1.2025 2.1055 143.2 22.1 .575 175
2019 06 17 06  17 02 20.952   +12 17 43.68  1.2025 2.1054 143.1 22.1 .578 175
2019 06 17 07  17 02 17.888   +12 17 20.89  1.2025 2.1054 143.1 22.1 .580 175
2019 06 17 08  17 02 14.825   +12 16 58.06  1.2025 2.1054 143.1 22.1 .583 175
2019 06 17 09  17 02 11.763   +12 16 35.18  1.2025 2.1053 143.1 22.1 .586 175
2019 06 17 10  17 02 08.702   +12 16 12.26  1.2026 2.1053 143.1 22.1 .589 175
2019 06 17 11  17 02 05.642   +12 15 49.29  1.2026 2.1053 143.1 22.1 .592 175
2019 06 17 12  17 02 02.583   +12 15 26.28  1.2026 2.1052 143.1 22.1 .595 175
2019 06 17 13  17 01 59.526   +12 15 03.22  1.2026 2.1052 143.1 22.1 .597 175
2019 06 17 14  17 01 56.469   +12 14 40.12  1.2027 2.1052 143.1 22.1 .600 175
2019 06 17 15  17 01 53.413   +12 14 16.98  1.2027 2.1051 143.1 22.1 .603 175
2019 06 17 16  17 01 50.359   +12 13 53.79  1.2027 2.1051 143.0 22.1 .606 175
2019 06 17 17  17 01 47.306   +12 13 30.55  1.2027 2.1051 143.0 22.1 .609 174
2019 06 17 18  17 01 44.253   +12 13 07.27  1.2027 2.1050 143.0 22.1 .612 174